FENGYUN 1C DEB

Satellite information

Favourite Embed

Satellite Type and Status

DEBRISIN ORBIT

Key statistics

Satellite FENGYUN 1C DEB at a glance.

Uptime

9659

Days in orbit

Revolutions

≈ 14.3

Per day

Orbit

SSO

Sun Synchronous Orbit

Inclination

98.9

Latest

Satellite identification and parameters

Extended collection of information and parameters for FENGYUN 1C DEB.

Object identification

Identified? True

Debris? True

Object name: FENGYUN 1C DEB

International designator: 1999-025RZ

Object number (NORAD): 30120

Object ID (CCSDS): 30120

Country: PEOPLES REPUBLIC OF CHINA (PRC)

Current information (Y/N): Y

RCS size: SMALL

Orbital parameters

Period: 100.916 minutes

Inclination: 98.8554 deg

SMA: 7180.139 km

Apoapsis: 846.387 km

Periapsis: 757.621 km

RAAN: 13.1404 deg

Eccentricy: 0.00618141

Argument of periapsis: 12.2625 deg

Mean anomaly: 47.376 deg

Mean motion: 14.26932664 rev/day

Mean motion (dot): 0.0000615 rev/day2

B* drag term: 0.0024970313 1/REarth

Two-line elements (TLE)

Creation date: Oct. 19, 2025, 2:20 a.m.

Reference frame: TEME

Reference center: EARTH

Epoch: Oct. 18, 2025, 10:08 p.m. UTC

TLE line 0: 0 FENGYUN 1C DEB

TLE line 1: 1 30120U 99025RZ 25291.92238194 .00006150 00000-0 24970-2 0 9994

TLE line 2: 2 30120 98.8554 13.1404 0061814 12.2625 47.3760 14.26932664965895

Live tracking on map

Real-time ground track for satellite FENGYUN 1C DEB.

In-orbit conjunctions

A list of the most updated potential collisions computed for object FENGYUN 1C DEB.

Target Orbit TCA Probability of collision Miss distance Type
ALEXIS LEO 2025-10-02 12:40:37 0.0006241478 38.0 (m) PAYLOAD
NOAA 16 DEB SSO 2025-08-24 03:15:30 0.0001015147 312.0 (m) DEBRIS
SL-8 R/B LEO 2024-11-29 16:40:43 0.0002172777 331.0 (m) ROCKET BODY
COSMOS 2278 LEO 2024-11-21 02:24:12 0.000121673 384.0 (m) PAYLOAD
COSMOS 968 LEO 2024-09-06 17:48:35 0.0003088473 66.0 (m) PAYLOAD

Associated space launch

Chinese polar orbiting meteorological satellite

FENGYUN 1C DEB was lifted into orbit during the mission ‘Long March 4B | Feng Yun 1C’, on board a Long March 4B space rocket.

The launch took place on May 10, 1999, 1:33 a.m. from Launch Complex 7.

For more information about the launch, click the button.

Launch to space Long March 4B | Feng Yun 1C
Long March 4B | Feng Yun 1C

Agency: N/A

Status: Launch Successful

Launch date: May 10, 1999, 1:33 a.m. UTC

Rocket: Long March 4B

Launch pad: Launch Complex 7

Location: Taiyuan Satellite Launch Center, People's Republic of China

...

Latest news about this satellite

There are no fresh news available about this satellite. Check back as we update our databases every day.


Newsletter sign-up

Weekly statistics, charts and insights to help you stay on top of the space industry.